Home > Weather > New York > Past weeks

Flag for U.S.A. Weather for the Past 2 Weeks in New York, New York, U.S.A.

Now
36 °F

Clear.


Feels Like: 33 °F
Forecast: 29 / 43 °F
Wind: 3 mph from North

Location: New York City - Central Park

Current Time: Feb 7, 2016 at 1:50:47 AM

Latest Report: Feb 7, 2016 at 12:51 AM


Visibility: 10 mi

Pressure: 30.23 "Hg

Humidity: 54%

Dew point: 21 °F

Location of New YorkLocation

Historic Weather in New York — Graph

°F

New York Temperature Yesterday

Maximum temperature yesterday: 40 °F (at 3:51 PM)
Minimum temperature yesterday: 31 °F (at 1:51 AM)
Average temperature yesterday: 35 °F

High & Low Weather Summary for the Past Weeks

 TemperatureHumidityPressure
High59 °F (Feb 1, 12:51 PM)93% (Feb 3, 5:51 PM)30.43 "Hg (Feb 3, 5:51 PM)
Low20 °F (Jan 24, 7:51 AM)32% (Jan 27, 3:51 PM)29.46 "Hg (Jan 29, 12:51 PM)
Average39 °F56%30.00 "Hg
* Reported Jan 22 11:03 PM — Feb 6 11:51 PM, New York, Weather by CustomWeather, © 2016

Note: Actual official high and low records may vary slightly from our data, if they occured in-between our weather recording intervals... More about our weather records

Advertising

New York Weather History for the Previous 24 Hours

 ConditionsComfort  
Time TempWeatherWind HumidityBarometerVisibility
11:51 PM
Sat, Feb 6
37 °FClear.10 mph52%30.25 "Hg10 mi
10:51 PM37 °FClear.7 mph52%30.27 "Hg10 mi
9:51 PM38 °FClear.7 mph48%30.28 "Hg10 mi
8:51 PM38 °FClear.3 mph48%30.28 "Hg10 mi
7:51 PM39 °FClear.8 mph45%30.29 "Hg10 mi
6:51 PM39 °FClear.7 mph43%30.29 "Hg10 mi
5:51 PM39 °FClear.6 mph41%30.28 "Hg10 mi
4:51 PM38 °FSunny.N/A46%30.28 "Hg10 mi
3:51 PM40 °FSunny.5 mph43%30.29 "Hg10 mi
2:51 PM39 °FSunny.9 mph43%30.30 "Hg10 mi
1:51 PM38 °FSunny.6 mph45%30.32 "Hg10 mi
12:51 PM39 °FSunny.6 mph45%30.34 "Hg10 mi
11:51 AM38 °FSunny.6 mph48%30.38 "Hg10 mi
10:51 AM37 °FSunny.No wind50%30.41 "Hg10 mi
9:51 AM34 °FSunny.8 mph52%30.43 "Hg10 mi
8:51 AM33 °FSunny.7 mph49%30.42 "Hg10 mi
7:51 AM31 °FSunny.5 mph57%30.41 "Hg10 mi
6:51 AM31 °FClear.3 mph57%30.40 "Hg10 mi
5:51 AM31 °FClear.3 mph54%30.38 "Hg10 mi
4:51 AM31 °FClear.6 mph54%30.37 "Hg10 mi
3:51 AM31 °FClear.3 mph54%30.35 "Hg10 mi
2:51 AM31 °FClear.3 mph54%30.35 "Hg10 mi
1:51 AM31 °FClear.No wind54%30.35 "Hg10 mi
Weather by CustomWeather, © 2016

See weather overviewHow to use our weather pages